GW4121 Weather Reports


time (UTC)temp
F
wind
direction
speed
knots
gust
knots
rain 1hr
in
rain 24hr
in
rain mn
in
humidity
%
barometer
mb
20260503021504 47 314 0.0 1.7 0.00 0.00 0.00 88 1019.6
20260503021006 47 0 0.0 0.0 0.00 0.00 0.00 88 1019.6
20260503020714 47 312 0.0 1.7 0.00 0.00 0.00 87 1019.6
20260503020005 48 311 0.0 1.7 0.00 0.00 0.00 87 1019.7
20260503015505 47 310 0.0 0.9 0.00 0.00 0.00 87 1019.7
20260503015004 47 310 0.0 1.7 0.00 0.00 0.00 87 1019.7
20260503014505 48 309 0.0 1.7 0.00 0.00 0.00 86 1019.7
20260503014004 48 306 0.9 1.7 0.00 0.00 0.00 87 1019.8
20260503013506 48 304 0.0 0.9 0.00 0.00 0.00 86 1019.8
20260503013005 48 301 0.0 0.9 0.00 0.00 0.00 86 1019.9
20260503012713 48 318 0.0 1.7 0.00 0.00 0.00 86 1019.9
20260503012006 48 317 0.9 1.7 0.00 0.00 0.00 86 1019.9
20260503011506 48 309 0.0 1.7 0.00 0.00 0.00 85 1020.0
20260503011217 48 307 0.0 0.9 0.00 0.00 0.00 85 1020.0
20260503010505 48 308 0.0 0.9 0.00 0.00 0.00 85 1020.0
20260503010005 48 310 0.0 0.9 0.00 0.00 0.00 86 1020.1
20260503005505 48 310 0.0 1.7 0.00 0.00 0.00 84 1020.1
20260503005004 48 312 0.9 1.7 0.00 0.00 0.00 86 1020.1
20260503004505 48 313 0.0 1.7 0.00 0.00 0.00 86 1020.1
20260503004215 48 313 0.0 0.9 0.00 0.00 0.00 86 1020.1
20260503003504 49 313 0.0 0.9 0.00 0.00 0.00 85 1020.0
20260503003216 49 313 0.0 0.9 0.00 0.00 0.00 84 1020.1
20260503002504 49 313 0.0 0.9 0.00 0.00 0.00 85 1020.2
20260503002217 49 313 0.0 0.9 0.00 0.00 0.00 84 1020.2
20260503001504 49 321 0.0 1.7 0.00 0.00 0.00 84 1020.2
20260503001004 49 321 0.0 1.7 0.00 0.00 0.00 84 1020.3
20260503000504 49 322 0.9 2.6 0.00 0.00 0.00 84 1020.3
20260503000006 50 320 0.9 2.6 0.00 0.00 0.00 84 1020.3
20260502235504 49 301 0.0 0.9 0.00 0.00 0.00 85 1020.4
20260502235004 49 301 0.0 0.9 0.00 0.00 0.00 84 1020.4
20260502234504 49 301 0.0 0.9 0.00 0.00 0.00 85 1020.4
20260502234006 49 300 0.0 0.9 0.00 0.00 0.00 85 1020.5
20260502233504 49 0 0.0 0.0 0.00 0.00 0.00 84 1020.5
20260502233217 50 0 0.0 0.0 0.00 0.00 0.00 83 1020.5
20260502232504 50 0 0.0 0.0 0.00 0.00 0.00 84 1020.6
20260502232006 50 307 0.0 0.9 0.00 0.00 0.00 83 1020.6
20260502231504 50 307 0.0 0.9 0.00 0.00 0.00 82 1020.6
20260502231007 50 0 0.0 0.0 0.00 0.00 0.00 82 1020.7
20260502230506 50 300 0.0 1.7 0.00 0.00 0.00 83 1020.8
20260502230006 50 267 0.0 1.7 0.00 0.00 0.00 83 1020.7
20260502225504 50 259 0.0 0.9 0.00 0.00 0.00 83 1020.7
20260502225006 50 264 0.0 0.9 0.00 0.00 0.00 84 1020.8
20260502224713 50 264 0.0 0.9 0.00 0.00 0.00 83 1020.9
20260502224004 50 239 0.0 1.7 0.00 0.00 0.00 84 1020.8
20260502223505 50 247 0.0 1.7 0.00 0.00 0.00 84 1020.8
20260502223217 50 293 0.0 0.9 0.00 0.00 0.00 83 1020.9
20260502222505 50 293 0.0 0.9 0.00 0.00 0.00 83 1021.0
20260502222004 51 0 0.0 0.0 0.00 0.00 0.00 82 1021.0
20260502221504 51 293 0.0 0.9 0.00 0.00 0.00 81 1021.0
20260502221214 51 293 0.0 0.9 0.00 0.00 0.00 81 1021.0
20260502220743 51 293 0.0 0.9 0.00 0.00 0.00 82 1021.0
20260502220504 51 293 0.0 0.9 0.00 0.00 0.00 82 1021.0
20260502215713 50 293 0.0 0.9 0.00 0.00 0.00 83 1021.1
20260502215004 50 293 0.0 0.9 0.00 0.00 0.00 83 1021.0
20260502214505 50 0 0.0 0.0 0.00 0.00 0.00 83 1021.1
20260502214004 51 0 0.0 0.0 0.00 0.00 0.00 83 1021.0
20260502213504 51 0 0.0 0.0 0.00 0.00 0.00 82 1021.0
20260502213004 51 60 0.0 0.9 0.00 0.00 0.00 82 1021.0
20260502212506 52 60 0.0 0.9 0.00 0.00 0.00 81 1021.0
20260502212004 52 60 0.0 0.9 0.00 0.00 0.00 80 1021.0
20260502211506 53 316 0.0 1.7 0.00 0.00 0.00 78 1021.1
20260502211006 53 313 0.9 1.7 0.00 0.00 0.00 78 1021.0
20260502210506 52 311 0.0 0.9 0.00 0.00 0.00 80 1021.1
20260502210006 52 306 0.0 0.9 0.00 0.00 0.00 80 1021.1
20260502205504 52 315 0.0 0.9 0.00 0.00 0.00 79 1021.2
20260502205005 53 298 0.0 0.9 0.00 0.00 0.00 78 1021.1
20260502204720 53 291 0.0 0.9 0.00 0.00 0.00 77 1021.1
20260502204004 54 291 0.0 0.9 0.00 0.00 0.00 77 1021.2
20260502203505 54 309 0.0 1.7 0.00 0.00 0.00 76 1021.2
20260502203214 54 310 0.9 1.7 0.00 0.00 0.00 75 1021.3
20260502202716 55 310 0.9 1.7 0.00 0.00 0.00 74 1021.2
20260502202004 56 307 0.9 2.6 0.00 0.00 0.00 73 1021.2
20260502201717 56 304 1.7 3.5 0.00 0.00 0.00 72 1021.2
20260502201004 56 297 0.9 3.5 0.00 0.00 0.00 73 1021.2
20260502200504 55 301 1.7 3.5 0.00 0.00 0.00 73 1021.1
20260502200216 56 301 1.7 3.5 0.00 0.00 0.00 73 1021.2
20260502195504 55 310 0.9 3.5 0.00 0.00 0.00 75 1021.1
20260502195004 55 316 1.7 3.5 0.00 0.00 0.00 74 1021.1
20260502194505 55 317 1.7 2.6 0.00 0.00 0.00 74 1021.0
20260502194004 56 313 0.9 2.6 0.00 0.00 0.00 74 1021.0
20260502193716 56 315 1.7 2.6 0.00 0.00 0.00 73 1021.0
20260502193005 55 309 0.9 2.6 0.00 0.00 0.00 75 1021.0
20260502192505 56 301 0.9 2.6 0.00 0.00 0.00 74 1020.9
20260502192005 56 305 0.9 2.6 0.00 0.00 0.00 72 1020.8
20260502191504 57 308 1.7 3.5 0.00 0.00 0.00 71 1020.7
20260502191004 57 311 1.7 3.5 0.00 0.00 0.00 71 1020.7
20260502190714 57 307 1.7 4.3 0.00 0.00 0.00 70 1020.7
20260502190217 58 305 1.7 4.3 0.00 0.00 0.00 70 1020.8
20260502185504 57 308 0.9 2.6 0.00 0.00 0.00 72 1020.7
20260502185218 57 308 0.9 2.6 0.00 0.00 0.00 72 1020.8
20260502184504 56 303 0.9 1.7 0.00 0.00 0.00 74 1020.8
20260502184004 57 297 0.9 1.7 0.00 0.00 0.00 72 1020.8
20260502183505 58 297 1.7 3.5 0.00 0.00 0.00 70 1020.7
20260502183004 58 298 1.7 3.5 0.00 0.00 0.00 68 1020.7
20260502182506 58 293 0.9 2.6 0.00 0.00 0.00 70 1020.6
20260502182005 58 290 0.9 1.7 0.00 0.00 0.00 70 1020.6
20260502181506 58 292 0.0 1.7 0.00 0.00 0.00 70 1020.6
20260502181217 58 289 0.0 1.7 0.00 0.00 0.00 70 1020.6
20260502180505 58 293 0.0 1.7 0.00 0.00 0.00 70 1020.4
20260502170506 64 298 1.7 2.6 0.00 0.00 0.00 59 1020.4
20260502164005 71 233 0.9 2.6 0.00 0.00 0.00 49 1020.4
20260502163504 73 230 0.0 2.6 0.00 0.00 0.00 45 1020.5
20260502163216 74 194 0.0 0.9 0.00 0.00 0.00 46 1020.5
20260502162714 73 159 0.0 0.9 0.00 0.00 0.00 43 1020.5
20260502162004 73 144 0.9 1.7 0.00 0.00 0.00 42 1020.6
20260502161504 73 122 0.9 2.6 0.00 0.00 0.00 42 1020.5
20260502161006 73 112 0.9 3.5 0.00 0.00 0.00 43 1020.6
20260502160716 73 116 0.9 3.5 0.00 0.00 0.00 43 1020.6
20260502152218 74 110 1.7 5.2 0.00 0.00 0.00 42 1020.8
20260502151505 73 116 1.7 6.1 0.00 0.00 0.00 38 1020.9
20260502151006 74 98 1.7 5.2 0.00 0.00 0.00 41 1020.9
20260502150504 73 98 1.7 7.0 0.00 0.00 0.00 40 1021.0
20260502130504 73 102 3.5 7.8 0.00 0.00 0.00 40 1021.9
20260502123504 73 134 3.5 7.0 0.00 0.00 0.00 39 1022.3
20260502123004 73 148 1.7 4.3 0.00 0.00 0.00 39 1022.3
20260502122506 73 101 1.7 4.3 0.00 0.00 0.00 38 1022.4
20260502122006 72 83 1.7 5.2 0.00 0.00 0.00 39 1022.4
20260502121506 72 103 2.6 6.1 0.00 0.00 0.00 40 1022.4
20260502121005 72 138 2.6 7.0 0.00 0.00 0.00 41 1022.5
20260502120713 72 159 3.5 7.0 0.00 0.00 0.00 41 1022.5
20260502115504 72 100 2.6 8.7 0.00 0.00 0.00 41 1022.6
20260502115004 72 107 3.5 8.7 0.00 0.00 0.00 43 1022.7
20260502114504 72 104 3.5 7.0 0.00 0.00 0.00 43 1022.8
20260502114005 71 112 3.5 7.0 0.00 0.00 0.00 43 1022.8
20260502113504 71 118 2.6 7.0 0.00 0.00 0.00 44 1022.8
20260502113006 71 123 3.5 8.7 0.00 0.00 0.00 43 1022.9
20260502112505 71 129 3.5 8.7 0.00 0.00 0.00 43 1022.9
20260502112006 71 133 2.6 6.1 0.00 0.00 0.00 45 1023.0
20260502111504 70 96 3.5 7.0 0.00 0.00 0.00 46 1023.1
20260502111004 70 89 3.5 7.0 0.00 0.00 0.00 43 1023.1
20260502110504 71 105 2.6 6.1 0.00 0.00 0.00 49 1023.2
20260502110007 70 89 2.6 6.1 0.00 0.00 0.00 45 1023.4
20260502105504 70 94 2.6 7.0 0.00 0.00 0.00 45 1023.4
20260502105004 70 105 2.6 7.0 0.00 0.00 0.00 48 1023.5
20260502104505 70 104 2.6 6.1 0.00 0.00 0.00 44 1023.7
20260502104006 69 93 3.5 7.8 0.00 0.00 0.00 45 1023.7
20260502103504 69 84 1.7 7.8 0.00 0.00 0.00 45 1023.7
20260502103006 69 82 1.7 4.3 0.00 0.00 0.00 45 1023.9
20260502102504 68 76 3.5 8.7 0.00 0.00 0.00 45 1023.8
20260502102004 68 80 3.5 8.7 0.00 0.00 0.00 48 1023.9
20260502101507 68 79 1.7 7.0 0.00 0.00 0.00 48 1024.0
20260502101004 68 73 1.7 7.0 0.00 0.00 0.00 49 1024.1
20260502100504 69 75 2.6 7.0 0.00 0.00 0.00 49 1024.2
20260502091504 66 90 2.6 5.2 0.00 0.00 0.00 52 1024.8
20260502091004 66 100 1.7 4.3 0.00 0.00 0.00 50 1024.8
20260502090505 66 93 1.7 5.2 0.00 0.00 0.00 53 1024.9
20260502071504 58 120 1.7 3.5 0.00 0.00 0.00 63 1025.6
20260502071218 58 106 1.7 3.5 0.00 0.00 0.00 62 1025.7
20260502070504 58 103 0.9 2.6 0.00 0.00 0.00 62 1025.7
20260502070006 57 99 0.9 2.6 0.00 0.00 0.00 62 1025.7
20260502065506 57 88 1.7 2.6 0.00 0.00 0.00 63 1025.7
20260502065004 57 96 1.7 3.5 0.00 0.00 0.00 64 1025.8
20260502064504 57 111 1.7 3.5 0.00 0.00 0.00 64 1025.7
20260502064006 57 90 0.9 2.6 0.00 0.00 0.00 63 1025.7
20260502063504 58 38 0.9 1.7 0.00 0.00 0.00 65 1025.8
20260502063005 59 16 0.0 1.7 0.00 0.00 0.00 66 1025.8
20260502062505 58 9 0.0 0.9 0.00 0.00 0.00 68 1025.8
20260502062005 57 12 0.0 0.9 0.00 0.00 0.00 68 1025.9
20260502061505 56 5 0.0 0.9 0.00 0.00 0.00 72 1026.0
20260502061004 56 353 0.0 0.9 0.00 0.00 0.00 71 1026.0
20260502060506 57 282 0.0 0.9 0.00 0.00 0.00 71 1026.1
20260502060005 56 282 0.0 0.9 0.00 0.00 0.00 71 1026.0
20260502055504 56 0 0.0 0.0 0.00 0.00 0.00 72 1026.0
20260502055216 55 0 0.0 0.0 0.00 0.00 0.00 72 1026.0
20260502054504 54 0 0.0 0.0 0.00 0.00 0.00 75 1026.0
20260502054006 52 0 0.0 0.0 0.00 0.00 0.00 79 1026.0
20260502053715 51 0 0.0 0.0 0.00 0.00 0.00 80 1026.1
20260502053004 50 0 0.0 0.0 0.00 0.00 0.00 81 1026.0
20260502052504 49 0 0.0 0.0 0.00 0.00 0.00 85 1026.1
20260502052004 48 0 0.0 0.0 0.00 0.00 0.00 87 1026.0
20260502051506 46 259 0.0 0.9 0.00 0.00 0.00 87 1026.1
20260502051004 45 259 0.0 0.9 0.00 0.00 0.00 89 1026.1
20260502050504 44 259 0.0 0.9 0.00 0.00 0.00 90 1026.1
20260502050006 43 259 0.0 0.9 0.00 0.00 0.00 91 1026.1
20260502045004 41 259 0.0 0.9 0.00 0.00 0.00 91 1026.0
20260502044504 41 259 0.0 0.9 0.00 0.00 0.00 91 1025.9
20260502044004 41 259 0.0 0.9 0.00 0.00 0.00 91 1026.0
20260502043504 41 259 0.0 0.9 0.00 0.00 0.00 91 1025.9
20260502043005 41 0 0.0 0.0 0.00 0.00 0.00 90 1026.0
20260502042504 41 251 0.0 0.9 0.00 0.00 0.00 91 1026.0
20260502042004 41 251 0.0 0.9 0.00 0.00 0.00 91 1025.8
20260502041505 41 238 0.0 0.9 0.00 0.00 0.00 90 1025.9
20260502041004 41 239 0.0 0.9 0.00 0.00 0.00 90 1025.9
20260502040505 41 244 0.0 0.9 0.00 0.00 0.00 90 1026.0
20260502040006 41 250 0.0 0.9 0.00 0.00 0.00 90 1025.8
20260502035504 41 250 0.0 0.9 0.00 0.00 0.00 90 1025.8
20260502035004 41 250 0.0 0.9 0.00 0.00 0.00 90 1025.7
20260502034504 41 250 0.0 0.9 0.00 0.00 0.00 91 1025.8
20260502034006 41 250 0.0 0.9 0.00 0.00 0.00 91 1025.8
20260502033504 41 250 0.0 0.9 0.00 0.00 0.00 91 1025.9
20260502033004 41 250 0.0 0.9 0.00 0.00 0.00 91 1025.8
20260502032503 41 250 0.0 0.9 0.00 0.00 0.00 91 1025.8
20260502032004 41 0 0.0 0.0 0.00 0.00 0.00 91 1025.8
20260502031504 41 230 0.0 0.9 0.00 0.00 0.00 90 1025.9
20260502031005 41 230 0.0 0.9 0.00 0.00 0.00 90 1025.8
20260502030504 41 0 0.0 0.0 0.00 0.00 0.00 90 1025.9
20260502030007 41 0 0.0 0.0 0.00 0.00 0.00 90 1025.9
20260502025506 41 238 0.0 0.9 0.00 0.00 0.00 90 1026.0
20260502025005 41 242 0.0 0.9 0.00 0.00 0.00 90 1026.0
20260502024504 41 263 0.0 0.9 0.00 0.00 0.00 90 1026.0
20260502024006 41 312 0.0 0.9 0.00 0.00 0.00 89 1026.0
20260502023504 41 0 0.0 0.0 0.00 0.00 0.00 89 1026.0
20260502023004 42 0 0.0 0.0 0.00 0.00 0.00 88 1025.9
20260502022504 42 0 0.0 0.0 0.00 0.00 0.00 88 1026.0
20260502022006 42 0 0.0 0.0 0.00 0.00 0.00 88 1026.0